Sauk Centre, MN

9:21 AM CDT on October 19, 2019 (GMT -0500)
Sauk Centre

Weather History for KD39 - August, 2019

Change the Weather History Date:

Friday, August 23, 2019

  Actual Average (KGHW) Record (KGHW)
Temperature  
Mean Temperature 61 °F -  
Max Temperature 73 °F 76 °F 96 °F (1949)
Min Temperature 49 °F 54 °F 40 °F (1987)
Degree Days  
Heating Degree Days 4    
Growing Degree Days 11 (Base 50)    
Moisture  
Dew Point 54 °F    
Average Humidity 78    
Maximum Humidity 97    
Minimum Humidity 54    
Precipitation  
Precipitation 0.00 in - - ()
Sea Level Pressure  
Sea Level Pressure 30.19 in    
Wind  
Wind Speed 5 mph ()    
Max Wind Speed 13 mph    
Max Gust Speed 17 mph    
Visibility 9.9 miles    
Events      
Averages and records for this station are not official NWS values.
T = Trace of Precipitation, MM = Missing Value Source: Averaged Metar Reports

Daily Weather History Graph

Daily Weather History Graph

Search for Another Location

Airport or City:

Astronomy

Aug. 23, 2019 Rise Set
Actual Time 6:29 AM CDT 8:14 PM CDT
Civil Twilight 5:57 AM CDT 8:45 PM CDT
Nautical Twilight 5:19 AM CDT 9:24 PM CDT
Astronomical Twilight 4:37 AM CDT 10:05 PM CDT
Moon No Moon Rise 2:30 PM CDT (8/23)
Length of Visible Light 14h 47m
Length of Day
13h 44m
Waning Gibbous, 49% of the Moon is Illuminated
Aug 23
Waning Gibbous
Aug 30
New
Sep 5
First Quarter
Sep 13
Full
Sep 21
Last Quarter

Hourly Weather History & Observations

Time (CDT) Temp. Dew Point Humidity Pressure Visibility Wind Dir Wind Speed Gust Speed Precip Events Conditions
12:15 AM 52.7 °F 49.5 °F 89% 30.16 in 10.0 mi Calm Calm - N/A   Clear
12:20 AM 52.7 °F 49.8 °F 90% 30.16 in 10.0 mi Calm Calm - N/A   Clear
12:39 AM 52.9 °F 50.0 °F 90% 30.16 in 10.0 mi Calm Calm - N/A   Clear
12:56 AM 52.3 °F 50.4 °F 93% 30.17 in 10.0 mi Calm Calm - N/A   Clear
1:16 AM 52.0 °F 50.2 °F 94% 30.17 in 10.0 mi Calm Calm - N/A   Clear
1:35 AM 50.9 °F 49.3 °F 94% 30.16 in 10.0 mi ENE 4.6 mph - N/A   Clear
1:36 AM 50.7 °F 49.1 °F 94% 30.16 in 10.0 mi ENE 4.6 mph - N/A   Clear
1:55 AM 52.3 °F 49.8 °F 91% 30.16 in 10.0 mi East 4.6 mph - N/A   Clear
2:18 AM 51.6 °F 49.3 °F 92% 30.16 in 10.0 mi East 3.5 mph - N/A   Clear
2:36 AM 51.3 °F 49.1 °F 92% 30.16 in 10.0 mi East 3.5 mph - N/A   Clear
2:56 AM 50.9 °F 48.9 °F 93% 30.16 in 10.0 mi East 3.5 mph - N/A   Clear
3:15 AM 50.0 °F 47.7 °F 92% 30.16 in 10.0 mi Calm Calm - N/A   Clear
3:16 AM 49.6 °F 47.5 °F 92% 30.16 in 10.0 mi Calm Calm - N/A   Clear
3:38 AM 50.9 °F 48.9 °F 93% 30.17 in 10.0 mi ENE 4.6 mph - N/A   Clear
3:56 AM 51.8 °F 49.8 °F 93% 30.17 in 10.0 mi East 5.8 mph - N/A   Clear
4:16 AM 52.0 °F 50.0 °F 93% 30.17 in 10.0 mi East 9.2 mph - N/A   Clear
4:35 AM 51.8 °F 49.8 °F 93% 30.18 in 10.0 mi ESE 4.6 mph - N/A   Clear
4:36 AM 51.8 °F 49.6 °F 92% 30.19 in 10.0 mi ESE 3.5 mph - N/A   Clear
4:58 AM 50.9 °F 49.3 °F 94% 30.18 in 10.0 mi East 4.6 mph - N/A   Clear
5:18 AM 50.9 °F 49.1 °F 94% 30.19 in 10.0 mi ESE 3.5 mph - N/A   Clear
5:35 AM 50.0 °F 48.9 °F 96% 30.18 in 10.0 mi East 4.6 mph - N/A   Clear
5:55 AM 50.2 °F 49.1 °F 96% 30.18 in 10.0 mi East 9.2 mph - N/A   Clear
5:56 AM 50.2 °F 49.1 °F 96% 30.18 in 10.0 mi East 8.1 mph - N/A   Clear
6:15 AM 50.5 °F 49.3 °F 95% 30.18 in 10.0 mi East 8.1 mph - N/A   Clear
6:16 AM 50.5 °F 49.3 °F 95% 30.18 in 10.0 mi East 8.1 mph - N/A   Clear
6:38 AM 49.5 °F 48.2 °F 95% 30.21 in 10.0 mi Calm Calm - N/A   Clear
6:57 AM 49.1 °F 48.2 °F 97% 30.21 in 10.0 mi Calm Calm - N/A   Clear
7:16 AM 50.2 °F 49.3 °F 97% 30.20 in 10.0 mi East 5.8 mph - N/A   Clear
7:35 AM 51.4 °F 49.6 °F 94% 30.21 in 10.0 mi East 4.6 mph - N/A   Clear
7:36 AM 51.3 °F 49.6 °F 94% 30.21 in 10.0 mi East 4.6 mph - N/A   Clear
7:55 AM 52.2 °F 50.2 °F 93% 30.20 in 10.0 mi East 9.2 mph - N/A   Clear
8:15 AM 53.6 °F 51.1 °F 91% 30.21 in 10.0 mi East 9.2 mph - N/A   Clear
8:19 AM 54.0 °F 51.3 °F 91% 30.21 in 10.0 mi East 8.1 mph - N/A   Clear
8:39 AM 55.8 °F 52.2 °F 88% 30.21 in 10.0 mi Calm Calm - N/A   Clear
8:57 AM 57.4 °F 52.9 °F 85% 30.21 in 10.0 mi East 4.6 mph - N/A   Clear
9:15 AM 58.5 °F 53.6 °F 84% 30.21 in 10.0 mi East 6.9 mph - N/A   Clear
9:35 AM 60.1 °F 54.7 °F 82% 30.21 in 10.0 mi East 6.9 mph - N/A   Clear
9:36 AM 60.3 °F 54.9 °F 82% 30.21 in 10.0 mi ESE 8.1 mph - N/A   Clear
9:55 AM 61.7 °F 55.6 °F 80% 30.21 in 10.0 mi ESE 8.1 mph - N/A   Clear
10:18 AM 63.3 °F 55.9 °F 77% 30.21 in 10.0 mi East 9.2 mph - N/A   Clear
10:37 AM 64.9 °F 56.7 °F 74% 30.22 in 10.0 mi ESE 8.1 mph - N/A   Clear
10:56 AM 65.8 °F 56.5 °F 72% 30.22 in 10.0 mi ESE 11.5 mph - N/A   Clear
11:35 AM 67.3 °F 57.0 °F 70% 30.22 in 10.0 mi East 9.2 mph - N/A   Scattered Clouds
11:39 AM 67.3 °F 57.0 °F 70% 30.22 in 10.0 mi ESE 9.2 mph - N/A   Scattered Clouds
11:57 AM 68.9 °F 55.9 °F 63% 30.21 in 10.0 mi ESE 9.2 mph - N/A   Scattered Clouds
12:15 PM 69.8 °F 57.0 °F 64% 30.21 in 10.0 mi ESE 8.1 mph - N/A   Scattered Clouds
12:36 PM 70.2 °F 56.3 °F 61% 30.21 in 10.0 mi SE 10.4 mph - N/A   Mostly Cloudy
12:55 PM 71.4 °F 55.9 °F 58% 30.21 in 10.0 mi SE 9.2 mph - N/A   Scattered Clouds
12:56 PM 71.6 °F 55.9 °F 58% 30.21 in 10.0 mi ESE 9.2 mph - N/A   Scattered Clouds
1:18 PM 71.4 °F 55.4 °F 57% 30.21 in 10.0 mi SE 11.5 mph 16.1 mph N/A   Scattered Clouds
1:36 PM 70.2 °F 54.7 °F 58% 30.20 in 10.0 mi SE 10.4 mph - N/A   Scattered Clouds
1:56 PM 71.4 °F 54.9 °F 56% 30.20 in 10.0 mi SE 9.2 mph - N/A   Mostly Cloudy
2:15 PM 73.2 °F 56.1 °F 55% 30.19 in 10.0 mi SSE 12.7 mph 16.1 mph N/A   Scattered Clouds
2:16 PM 73.4 °F 55.9 °F 54% 30.20 in 10.0 mi SE 11.5 mph 16.1 mph N/A   Scattered Clouds
2:35 PM 73.2 °F 55.8 °F 54% 30.19 in 10.0 mi ESE 10.4 mph - N/A   Mostly Cloudy
2:57 PM 72.9 °F 56.1 °F 56% 30.19 in 10.0 mi SE 12.7 mph - N/A   Scattered Clouds
3:17 PM 71.8 °F 56.8 °F 59% 30.18 in 10.0 mi ESE 9.2 mph - N/A   Clear
3:35 PM 72.5 °F 56.3 °F 57% 30.18 in 10.0 mi SE 9.2 mph 17.3 mph N/A   Scattered Clouds
3:36 PM 72.7 °F 56.3 °F 56% 30.18 in 10.0 mi SE 9.2 mph 17.3 mph N/A   Clear
3:55 PM 73.4 °F 57.2 °F 57% 30.18 in 10.0 mi SE 12.7 mph - N/A   Clear
4:18 PM 72.5 °F 57.0 °F 58% 30.18 in 10.0 mi SE 11.5 mph - N/A   Scattered Clouds
4:37 PM 73.4 °F 57.7 °F 58% 30.17 in 10.0 mi SE 10.4 mph - N/A   Scattered Clouds
4:56 PM 71.6 °F 56.3 °F 58% 30.18 in 10.0 mi ESE 9.2 mph - N/A   Mostly Cloudy
5:15 PM 72.3 °F 56.7 °F 58% 30.18 in 10.0 mi SE 8.1 mph - N/A   Scattered Clouds
5:35 PM 71.1 °F 56.1 °F 59% 30.18 in 5.0 mi SE 9.2 mph - N/A   Haze
5:39 PM 70.7 °F 55.8 °F 59% 30.18 in 5.0 mi SE 8.1 mph - N/A   Haze
5:57 PM 72.7 °F 55.8 °F 55% 30.18 in 10.0 mi SE 9.2 mph - N/A   Scattered Clouds
6:16 PM 70.0 °F 56.5 °F 62% 30.18 in 10.0 mi SE 5.8 mph - N/A   Clear
6:35 PM 72.1 °F 55.8 °F 56% 30.18 in 10.0 mi SE 6.9 mph - N/A   Clear
6:36 PM 72.1 °F 55.9 °F 57% 30.18 in 10.0 mi SE 8.1 mph - N/A   Clear
6:55 PM 71.2 °F 56.7 °F 60% 30.18 in 10.0 mi ESE 8.1 mph - N/A   Clear
7:16 PM 70.2 °F 56.3 °F 61% 30.18 in 10.0 mi SE 6.9 mph - N/A   Clear
7:35 PM 69.1 °F 57.0 °F 65% 30.18 in 10.0 mi ESE 5.8 mph - N/A   Clear
7:36 PM 68.9 °F 57.0 °F 66% 30.18 in 10.0 mi ESE 5.8 mph - N/A   Clear
7:55 PM 66.7 °F 57.2 °F 71% 30.17 in 10.0 mi ESE 4.6 mph - N/A   Clear
7:56 PM 66.7 °F 57.2 °F 71% 30.17 in 10.0 mi ESE 4.6 mph - N/A   Clear
8:15 PM 66.7 °F 56.7 °F 70% 30.17 in 10.0 mi East 5.8 mph - N/A   Clear
8:37 PM 63.9 °F 56.5 °F 77% 30.17 in 10.0 mi East 5.8 mph - N/A   Clear
8:56 PM 63.0 °F 56.8 °F 80% 30.18 in 10.0 mi East 5.8 mph - N/A   Clear
9:15 PM 62.2 °F 56.8 °F 82% 30.18 in 10.0 mi East 5.8 mph - N/A   Clear
9:16 PM 62.2 °F 56.8 °F 82% 30.18 in 10.0 mi East 5.8 mph - N/A   Clear
9:35 PM 61.9 °F 56.8 °F 84% 30.19 in 10.0 mi East 4.6 mph - N/A   Clear
9:36 PM 61.9 °F 56.8 °F 84% 30.19 in 10.0 mi East 4.6 mph - N/A   Clear
9:58 PM 61.5 °F 56.7 °F 84% 30.18 in 10.0 mi East 4.6 mph - N/A   Clear
10:17 PM 62.2 °F 56.5 °F 81% 30.19 in 10.0 mi East 4.6 mph - N/A   Clear
10:35 PM 61.0 °F 56.5 °F 85% 30.19 in 10.0 mi East 5.8 mph - N/A   Clear
10:55 PM 61.7 °F 56.5 °F 83% 30.18 in 10.0 mi East 5.8 mph - N/A   Clear
10:56 PM 61.7 °F 56.5 °F 83% 30.18 in 10.0 mi East 5.8 mph - N/A   Clear
11:15 PM 61.3 °F 56.5 °F 84% 30.18 in 10.0 mi East 5.8 mph - N/A   Clear
11:19 PM 61.3 °F 56.5 °F 84% 30.18 in 10.0 mi ESE 5.8 mph - N/A   Clear
11:37 PM 60.8 °F 56.5 °F 86% 30.18 in 10.0 mi East 5.8 mph - N/A   Clear
11:56 PM 60.6 °F 56.7 °F 87% 30.18 in 10.0 mi ESE 6.9 mph - N/A   Scattered Clouds